STARLINK-4590, 53606

Orbit data source: Space-Track

STARLINK-4590, 53606 is a payload satellite owned by SpaceX/Seattle (US) in LEO that was launched on Sun, 28 Aug 2022 UTC via an FALCON 9 launch vehicle from the Air Force Eastern Test Range (AFETR). Payload-class satellites include a variety of spacecraft equipped with specific instruments for various scientific and technological missions. These include communications satellites like Starlink; space stations such as the ISS; scientific satellites like the Hubble; Earth observation satellites from companies like Planet Labs, Umbra, and HawkEye 360; GPS; miniature CubeSats for education and research; and military/defense satellites.

Loading next visibility...
Identifier
53606, 2022-104U
Orbit
LEO
Country
Flag of USUS
Related business
Manufacturer
SpaceX/Seattle
Mission
Operational Commercial Communications
Bus & Motor
STARLINK, Unknown motor
Mass
300 kg wet, ~290 kg dry
Launch date (UTC)
2022-08-28 (3 years ago)
Launch vehicle
FALCON 9
Launch site
Air Force Eastern Test Range (AFETR)
Object type
Payload
Rocket body
Debris
Shape & HBR
Box + 1 Pan, 10.1 m
Radar Cross Section
13.562 m², Large (>1 m²)

Expand to show TLE details & history
Last TLE update: 2 days ago

TLE from 2 days ago
0 STARLINK-4590
1 53606U 22104U   25300.21749487  .00000431  00000-0  45164-4 0  9993
2 53606  53.2167 113.4112 0001346  89.0272 271.0874 15.08841412175489
Epoch: 2025-10-27T05:13Z
TLE epoch observation values (Epoch: 2025-10-27T05:13:11.556Z)
Latitude
-0.00007°
Longitude
-0.7095°
Altitude
540.619 km
Speed
7.593 km/s
True Right ascension
07h 33m 38s
True Declination
0° 00' 00"
Sunlit
Object was in daylight at epoch
Visualization orbit readout
Latitude
Unknown
Longitude
Unknown
Altitude
Unknown
Speed
Unknown
Apparent Right ascension
Unknown
Apparent Declination
Unknown
Sunlit
N/A
Visualization observer readout
Local Sidereal Time
00:39:04
Azimuth
Unknown
Elevation
Unknown
Doppler factor
Unknown
Orbital elements
Apogee altitude
540.915 km
Perigee altitude
539.053 km
Semi-major axis
6,918.121 km
Eccentricity
0.00013
Inclination
53.2167°
RAAN
113.4112°
Arg. of periapsis
89.0272°
True anomaly
271.07198°
Mean anomaly
271.0874°
Eccentric anomaly
271.07969°
Mean motion
3.77191 °/min
Orbital period
95.44 mins
BSTAR
0.000045164
Loading maneuver chart data...
Computing Atmospheric mass density...
Loading historical data...
Loading historical data...
Loading historical data...
Loading historical data...
Loading historical data...
Loading historical data...
Loading historical data...

Documentation

Showing up to 5 results
|